This demonstration page uses our WeatherBlox Daily Observations layout. Learn more.

Left ArrowRight Arrow

Hourly Observations for July 25, 2019

Temp ( °F °C ) Dew Point ( °F °C ) Humidity (%) Winds ( mph kmh ) Pressure ( in mb ) Visibility ( mi km ) Precip ( " mm )
12:56 am 00:56 Clear 68 20 59 15 73 73 SSE 10 17 30.03 1017 10 16 0.00 0.00
1:56 am 01:56 Clear 67 19.4 59 15 76 76 SSE 10 17 30.02 1017 10 16 0.00 0.00
2:56 am 02:56 Clear 67 19.4 59 15 76 76 SSE 13 20 29.99 1016 10 16 0.00 0.00
3:56 am 03:56 Clear 65 18.3 58 14.4 78 78 SSE 9 15 30.01 1016 10 16 0.00 0.00
4:56 am 04:56 Clear 65 18.3 57 13.9 76 76 SSE 12 19 29.98 1015 10 16 0.00 0.00
5:56 am 05:56 Clear 66 18.9 56 13.3 70 70 S 14 22 29.98 1015 10 16 0.00 0.00
6:56 am 06:56 Mostly Sunny 67 19.4 55 12.8 66 66 S 15 24 30.00 1016 10 16 0.00 0.00
7:56 am 07:56 Sunny 67 19.4 56 13.3 68 68 S 13 20 30.00 1016 10 16 0.00 0.00
8:56 am 08:56 Sunny 68 20 57 13.9 68 68 S 13 20 30.01 1016 10 16 0.00 0.00
9:56 am 09:56 Sunny 70 21.1 58 14.4 66 66 S 16 26 29.99 1016 10 16 0.00 0.00
10:56 am 10:56 Sunny 74 23.3 59 15 60 60 S 16 26 29.99 1016 10 16 0.00 0.00
11:56 am 11:56 Sunny 78 25.6 61 16.1 56 56 S 18 30 29.98 1015 10 16 0.00 0.00
12:56 pm 12:56 Sunny 81 27.2 62 16.7 53 53 SSE 17 28 29.98 1015 10 16 0.00 0.00
1:56 pm 13:56 Sunny 80 26.7 61 16.1 52 52 S 14 22 29.98 1015 10 16 0.00 0.00
2:56 pm 14:56 Sunny 83 28.3 64 17.8 53 53 S 18 30 29.96 1015 10 16 0.00 0.00
3:56 pm 15:56 Sunny 85 29.4 63 17.2 48 48 S 18 30 29.96 1015 10 16 0.00 0.00
4:56 pm 16:56 Mostly Sunny 84 28.9 63 17.2 49 49 S 18 30 29.94 1014 10 16 0.00 0.00
5:56 pm 17:56 Sunny 84 28.9 66 18.9 55 55 S 13 20 29.94 1014 10 16 0.00 0.00
6:56 pm 18:56 Sunny 82 27.8 66 18.9 58 58 SSE 12 19 29.93 1014 10 16 0.00 0.00
7:56 pm 19:56 Sunny 78 25.6 63 17.2 60 60 SSE 8 13 29.93 1014 10 16 0.00 0.00
8:56 pm 20:56 Sunny 75 23.9 63 17.2 66 66 SSE 9 15 29.94 1014 10 16 0.00 0.00
9:56 pm 21:56 Clear 73 22.8 62 16.7 69 69 S 10 17 29.95 1014 10 16 0.00 0.00
10:56 pm 22:56 Clear 72 22.2 61 16.1 68 68 SSE 9 15 29.96 1015 10 16 0.00 0.00
11:56 pm 23:56 Clear 70 21.1 60 15.6 71 71 S 9 15 29.97 1015 10 16 0.00 0.00

Powered by AerisWeather